Lobo

Go HERE for most recent data if this page is not up to date.

Jump to table bottom
Date/Time Temp deg F RH % 24 Hr Snow (in) Snow Depth (in) H2O (in)
08/17 13:00 69.9 18 "NAN" 4.8 0.00
08/17 12:00 68.9 18 "NAN" 5.1 0.00
08/17 11:00 66.2 18 "NAN" 5.0 0.00
08/17 10:00 64.0 19 "NAN" -11.0 0.00
08/17 09:00 60.8 20 "NAN" 5.2 0.00
08/17 08:00 58.3 22 "NAN" 5.2 0.00
08/17 07:00 56.7 24 "NAN" -116.2 0.00
08/17 06:00 56.7 22 "NAN" -11.9 0.00
08/17 05:00 57.3 23 "NAN" 5.0 0.00
08/17 04:00 58.1 21 "NAN" -116.3 0.00
08/17 03:00 58.5 21 "NAN" -11.0 0.00
08/17 02:00 59.0 20 "NAN" -11.2 0.00
08/17 01:00 60.1 20 "NAN" -11.2 0.00
08/17 00:00 61.2 27 "NAN" -10.6 0.00
08/16 23:00 62.3 23 "NAN" 2.6 0.00
08/16 22:00 64.3 20 "NAN" 3.0 0.00
08/16 21:00 65.4 19 "NAN" -11.1 0.00
08/16 20:00 66.2 19 "NAN" 2.9 0.00
08/16 19:00 68.1 22 "NAN" -11.8 0.00
08/16 18:00 70.1 20 "NAN" -11.8 0.00
08/16 17:00 71.2 21 "NAN" 5.0 0.00
08/16 16:00 71.6 19 "NAN" -5.2 0.00
08/16 15:00 71.0 19 "NAN" 2.3 0.00
08/16 14:00 70.1 23 "NAN" -11.6 0.00
08/16 13:00 68.7 23 "NAN" 1.7 0.00
08/16 12:00 68.6 22 "NAN" -10.0 0.00
08/16 11:00 65.7 25 "NAN" 0.8 0.00
08/16 10:00 63.8 31 "NAN" 1.6 0.00
08/16 09:00 61.0 29 "NAN" -11.8 0.00
08/16 08:00 58.5 27 "NAN" 1.5 0.00
08/16 07:00 56.5 28 "NAN" 1.7 0.00
08/16 06:00 57.0 28 "NAN" -12.4 0.00
08/16 05:00 58.0 26 "NAN" -116.0 0.00
08/16 04:00 57.3 27 "NAN" 2.0 0.00
08/16 03:00 56.9 28 "NAN" 4.6 0.00
08/16 02:00 58.0 26 "NAN" 1.2 0.00
08/16 01:00 59.6 26 "NAN" -12.2 0.00
08/16 00:00 60.6 22 "NAN" -11.8 0.00
.